COSMOS 158

Satellite information

Favourite Embed

Satellite Type and Status

PAYLOADIN ORBIT

Key statistics

Satellite COSMOS 158 at a glance.

Uptime

21238

Days in orbit

Revolutions

≈ 14.4

Per day

Orbit

LEO

Low Earth Orbit

Inclination

74.0

Latest

Satellite identification and parameters

Extended collection of information and parameters for COSMOS 158.

Object identification

Identified? True

Debris? False

Object name: COSMOS 158

International designator: 1967-045A

Object number (NORAD): 2801

Object ID (CCSDS): 2801

Country: COMMONWEALTH OF INDEPENDENT STATES (CIS)

Current information (Y/N): Y

RCS size: LARGE

Orbital parameters

Period: 100.216 minutes

Inclination: 74.0415 deg

SMA: 7146.927 km

Apoapsis: 810.316 km

Periapsis: 727.268 km

RAAN: 340.3393 deg

Eccentricy: 0.0058101

Argument of periapsis: 272.8594 deg

Mean anomaly: 86.591 deg

Mean motion: 14.3689075 rev/day

Mean motion (dot): 0.00000004 rev/day2

B* drag term: 0.000010167 1/REarth

Two-line elements (TLE)

Creation date: July 6, 2025, 6:05 p.m.

Reference frame: TEME

Reference center: EARTH

Epoch: July 6, 2025, 2 p.m. UTC

TLE line 0: 0 COSMOS 158

TLE line 1: 1 02801U 67045A 25187.58371240 .00000004 00000-0 10167-4 0 9999

TLE line 2: 2 02801 74.0415 340.3393 0058101 272.8594 86.5910 14.36890750 46788

Live tracking on map

Real-time ground track for satellite COSMOS 158.

In-orbit conjunctions

A list of the most updated potential collisions computed for object COSMOS 158.

Target Orbit TCA Probability of collision Miss distance Type
FENGYUN 1C DEB SSO 2025-05-16 17:00:40 0.000353984 989.0 (m) DEBRIS
FENGYUN 1C DEB SSO 2025-05-06 14:02:24 0.0001687213 325.0 (m) DEBRIS
FENGYUN 1C DEB SSO 2025-03-02 15:37:14 0.0004117903 173.0 (m) DEBRIS
COSMOS 1275 DEB LEO 2025-02-15 10:54:51 0.0002621021 138.0 (m) DEBRIS
THOR ABLESTAR DEB LEO 2024-12-14 11:30:16 0.000560832 314.0 (m) DEBRIS

Associated space launch

The Zaliv-GVM satellites were mass models of the Zaliv navigation satellites, which were launched as payload substitutes on some Kosmos-3M evaluation launches.

COSMOS 158 was lifted into orbit during the mission ‘Kosmos-3M | Zaliv-GVM 1’, on board a Kosmos-3M space rocket.

The launch took place on May 15, 1967, 11 a.m. from 132/2.

For more information about the launch, click the button.

Launch to space Kosmos-3M | Zaliv-GVM 1
Kosmos-3M | Zaliv-GVM 1

Agency: N/A

Status: Launch Successful

Launch date: May 15, 1967, 11 a.m. UTC

Rocket: Kosmos-3M

Launch pad: 132/2

Location: Plesetsk Cosmodrome, Russian Federation

...

Latest news about this satellite

There are no fresh news available about this satellite. Check back as we update our databases every day.


Newsletter sign-up

Weekly statistics, charts and insights to help you stay on top of the space industry.